Location: Bretagne
(43.8474°N, 0.4650°W)
Time: 04:37:22
(UTC+00:00)

Envisat - Pass Details

Date: 08 March 2026
Orbit: 761 x 762 km, 98.4° (Epoch: 17 April)

Event Time Altitude Azimuth Distance (km) Brightness Sun altitude
Rises 03:51:42 0° 2° (N) 3,236 6.5 -28.3°
Reaches altitude 10° 03:54:21 10° 349° (N) 2,305 5.6 -27.8°
Enters shadow 03:55:36 16° 339° (NNW) 1,937 5.1 -27.6°
